Regional Weather Roundup
Issued by NWS New Orleans/Baton Rouge, LA

Home | Current Version | Previous Version | Text Only | Print | Product List | Glossary Off
Versions: 1 2 3 4 5 6 7 8 9 10 11 12 13 14 15 16 17 18 19 20 21 22 23 24 25 26 27 28 29 30 31 32 33 34 35 36 37 38 39 40 41 42 43 44 45 46 47 48 49 50

935
ASUS44 KLIX 211805
RWRLIX
NEW ORLEANS REGIONAL WEATHER ROUNDUP
NATIONAL WEATHER SERVICE NEW ORLEANS LA
1200 PM CST FRI NOV 21 2014

NOTE: "FAIR" INDICATES FEW OR NO CLOUDS BELOW 12,000 FEET WITH NO
      SIGNIFICANT WEATHER AND/OR OBSTRUCTIONS TO VISIBILITY.
      SKY/WX - SKY CONDITION AND SIGNIFICANT WEATHER.
      TMP - AIR TEMPERATURE.     DP    - DEWPOINT TEMPERATURE.
      RH  - RELATIVE HUMIDITY.   PRES  - PRESSURE.
      HI  - HEAT INDEX.          WCI   - WIND CHILL INDEX.

*  THESE STATIONS ARE NOT NWS OR FAA STATIONS AND ARE NOT UNDER
   NWS QUALITY CONTROL.

LAZ038-040-048-061>063-065>067-069-211900-
SOUTHEAST LOUISIANA

CITY           SKY/WX    TMP DP  RH WIND       PRES   REMARKS
N.O. AUDUBON     N/A     70  50  48 MISG        N/A
6HR MIN TEMP:  52; 6HR MAX TEMP:  70;

N.O. INTL ARPT SUNNY     70  46  42 E15G25    30.28F
6HR MIN TEMP:  46; 6HR MAX TEMP:  70;

N.O. LAKEFRONT SUNNY     68  49  50 E14       30.29F
6HR MIN TEMP:  52; 6HR MAX TEMP:  68;

N.O. DOWNTOWN*   N/A     66  48  52 NE9       30.29F
6HR MIN TEMP:  57; 6HR MAX TEMP:  68;

SLIDELL        SUNNY     69  48  47 SE9G23    30.29F
6HR MIN TEMP:  37; 6HR MAX TEMP:  70;

BATON ROUGE    SUNNY     71  43  36 E16G25    30.25F
6HR MIN TEMP:  46; 6HR MAX TEMP:  71;

BOOTHVILLE     SUNNY     68  50  52 E13G23    30.28F
6HR MIN TEMP:  55; 6HR MAX TEMP:  68;

BELLE CHASSE   SUNNY     70  46  42 SE14G23   30.28F
6HR MIN TEMP:  41; 6HR MAX TEMP:  71;

BOGALUSA*        N/A     72  45  38 SE7G16    30.30F
6HR MIN TEMP:  38; 6HR MAX TEMP:  72;

NEW ROADS*       N/A     70  45  40 SE17G23   30.26F
6HR MIN TEMP:  50; 6HR MAX TEMP:  71;

GONZALES*        N/A     70  46  42 E10G20    30.26F
6HR MIN TEMP:  44; 6HR MAX TEMP:  70;

HAMMOND*       SUNNY     70  46  43 S17G23    30.30F
HOUMA*         SUNNY     72  46  40 E14       30.26F
PORT FOURCHON* CLEAR     68  52  56 E15G22    30.29F

$$

MSZ070-080>082-211900-
SOUTHERN MISSISSIPPI

CITY           SKY/WX    TMP DP  RH WIND       PRES   REMARKS
MCCOMB         CLOUDY    67  46  47 S13       30.29F
6HR MIN TEMP:  40; 6HR MAX TEMP:  67;

GULFPORT       SUNNY     68  49  50 E16       30.30F
6HR MIN TEMP:  41; 6HR MAX TEMP:  68;

BILOXI         SUNNY     69  50  50 SE8       30.31F
6HR MIN TEMP:  44; 6HR MAX TEMP:  70;

PASCAGOULA     SUNNY     69  44  40 SE13G21   30.31F
6HR MIN TEMP:  35; 6HR MAX TEMP:  69;

STENNIS ARPT*  MOSUNNY   70  46  43 SE14      30.30F

$$

COASTAL OBSERVATIONS
LAKE AND NEARSHORE STATIONS

STATION/POSITION TIME  TEMP    WIND        PRES    WAVE
                       AIR SEA DIR/SP/G            HT/PER
                 (UTC) (F)     (DEG/KT/KT) (MB)    (FT/S)
PASCAGOULA       1800   65      80/ 12/ 15 1026.0
WAVELAND YACHT   1800   62     110/ 14/ 18 1025.4
GRAND ISLE       1800   65 58   70/  6/  8 1025.7
SOUTHWEST PASS   1800   72 72              1025.1
NEW CANAL        1800   67 54  150/  5/ 14 1026.0
SHELL BEACH      1800   57 50   20/  9/ 11 1025.7

OFFSHORE STATIONS

STATION/POSITION TIME  TEMP    WIND        PRES    WAVE
                       AIR SEA DIR/SP/G            HT/PER
                 (UTC) (F)     (DEG/KT/KT) (MB)    (FT/S)
64 S DAUPHIN ISL 1702   67 73   90/ 19/ 23 1026.0    4/ 4

$$




USA.gov is the U.S. government's official web portal to all federal, state and local government web resources and services.